Tracking 31027 objects as of 19-Jul-2025
HD Live streaming from Space Station
objects crossing your sky now

STARLINK-6334

Track STARLINK-6334 now!
10-day predictions
STARLINK-6334 is classified as:


NORAD ID: 57238
Int'l Code: 2023-094W
Perigee: 565.1 km
Apogee: 567.5 km
Inclination: 43.0 °
Period: 95.8 minutes
Semi major axis: 6937 km
RCS: Unknown
Launch date: July 7, 2023
Source: United States (US)
Launch site: AIR FORCE WESTERN TEST RANGE (AFWTR)
Your satellite tracking list
STARLINK-6351
Track 1 satellite(s)




NASA's NSSDC Master Catalog

Two Line Element Set (TLE):
1 57238U 23094W   25199.74661715 -.00005702  00000-0 -40753-3 0  9994
2 57238  43.0020 208.9537 0001740 268.5094  91.5549 15.02520287112252
Source of the keplerian elements: AFSPC